Year,Month,Day,Hour,Minute,Value (Times are PST for temperature in C)
2021,07,04,00,00,16.80
2021,07,04,00,01,16.80
2021,07,04,00,02,16.80
2021,07,04,00,03,16.80
2021,07,04,00,04,16.70
2021,07,04,00,05,16.70
2021,07,04,00,06,16.70
2021,07,04,00,07,16.70
2021,07,04,00,08,16.70
2021,07,04,00,09,16.70
2021,07,04,00,10,16.70
2021,07,04,00,11,16.70
2021,07,04,00,12,16.70
2021,07,04,00,13,16.70
2021,07,04,00,14,16.60
2021,07,04,00,15,16.60
2021,07,04,00,16,16.60
2021,07,04,00,17,16.60
2021,07,04,00,18,16.60
2021,07,04,00,19,16.60
2021,07,04,00,20,16.70
2021,07,04,00,21,16.70
2021,07,04,00,22,16.60
2021,07,04,00,23,16.60
2021,07,04,00,24,16.60
2021,07,04,00,25,16.60
2021,07,04,00,26,16.60
2021,07,04,00,27,16.60
2021,07,04,00,28,16.60
2021,07,04,00,29,16.60
2021,07,04,00,30,16.60
2021,07,04,00,31,16.60
2021,07,04,00,32,16.60
2021,07,04,00,33,16.60
2021,07,04,00,34,16.60
2021,07,04,00,35,16.60
2021,07,04,00,36,16.60
2021,07,04,00,37,16.60
2021,07,04,00,38,16.60
2021,07,04,00,39,16.60
2021,07,04,00,40,16.60
2021,07,04,00,41,16.60
2021,07,04,00,42,16.60
2021,07,04,00,43,16.60
2021,07,04,00,44,16.60
2021,07,04,00,45,16.60
2021,07,04,00,46,16.60
2021,07,04,00,47,16.60
2021,07,04,00,48,16.60
2021,07,04,00,49,16.60
2021,07,04,00,50,16.60
2021,07,04,00,51,16.60
2021,07,04,00,52,16.60
2021,07,04,00,53,16.60
2021,07,04,00,54,16.60
2021,07,04,00,55,16.50
2021,07,04,00,56,16.50
2021,07,04,00,57,16.50
2021,07,04,00,58,16.50
2021,07,04,00,59,16.50
2021,07,04,01,00,16.40
2021,07,04,01,01,16.40
2021,07,04,01,02,16.40
2021,07,04,01,03,16.40
2021,07,04,01,04,16.40
2021,07,04,01,05,16.40
2021,07,04,01,06,16.30
2021,07,04,01,07,16.30
2021,07,04,01,08,16.30
2021,07,04,01,09,16.30
2021,07,04,01,10,16.30
2021,07,04,01,11,16.30
2021,07,04,01,12,16.20
2021,07,04,01,13,16.20
2021,07,04,01,14,16.20
2021,07,04,01,15,16.20
2021,07,04,01,16,16.20
2021,07,04,01,17,16.20
2021,07,04,01,18,16.10
2021,07,04,01,19,16.10
2021,07,04,01,20,16.10
2021,07,04,01,21,16.10
2021,07,04,01,22,16.10
2021,07,04,01,23,16.10
2021,07,04,01,24,16.00
2021,07,04,01,25,16.00
2021,07,04,01,26,16.00
2021,07,04,01,27,16.00
2021,07,04,01,28,16.00
2021,07,04,01,29,16.00
2021,07,04,01,30,16.00
2021,07,04,01,31,16.00
2021,07,04,01,32,16.10
2021,07,04,01,33,16.10
2021,07,04,01,34,16.00
2021,07,04,01,35,16.10
2021,07,04,01,36,16.10
2021,07,04,01,37,16.00
2021,07,04,01,38,16.10
2021,07,04,01,39,16.10
2021,07,04,01,40,16.10
2021,07,04,01,41,16.00
2021,07,04,01,42,16.10
2021,07,04,01,43,16.10
2021,07,04,01,44,16.10
2021,07,04,01,45,16.10
2021,07,04,01,46,16.00
2021,07,04,01,47,16.10
2021,07,04,01,48,16.10
2021,07,04,01,49,16.00
2021,07,04,01,50,16.10
2021,07,04,01,51,16.00
2021,07,04,01,52,16.00
2021,07,04,01,53,16.00
2021,07,04,01,54,16.00
2021,07,04,01,55,16.00
2021,07,04,01,56,16.00
2021,07,04,01,57,16.00
2021,07,04,01,58,16.00
2021,07,04,01,59,16.00
2021,07,04,02,00,15.90
2021,07,04,02,01,15.90
2021,07,04,02,02,16.00
2021,07,04,02,03,16.00
2021,07,04,02,04,16.00
2021,07,04,02,05,16.00
2021,07,04,02,06,16.00
2021,07,04,02,07,16.00
2021,07,04,02,08,16.00
2021,07,04,02,09,16.00
2021,07,04,02,10,15.90
2021,07,04,02,11,15.90
2021,07,04,02,12,15.90
2021,07,04,02,13,15.90
2021,07,04,02,14,15.90
2021,07,04,02,15,15.90
2021,07,04,02,16,15.80
2021,07,04,02,17,15.80
2021,07,04,02,18,15.80
2021,07,04,02,19,15.80
2021,07,04,02,20,15.80
2021,07,04,02,21,15.70
2021,07,04,02,22,15.70
2021,07,04,02,23,15.70
2021,07,04,02,24,15.60
2021,07,04,02,25,15.60
2021,07,04,02,26,15.60
2021,07,04,02,27,15.60
2021,07,04,02,28,15.50
2021,07,04,02,29,15.50
2021,07,04,02,30,15.60
2021,07,04,02,31,15.50
2021,07,04,02,32,15.50
2021,07,04,02,33,15.50
2021,07,04,02,34,15.50
2021,07,04,02,35,15.40
2021,07,04,02,36,15.40
2021,07,04,02,37,15.40
2021,07,04,02,38,15.30
2021,07,04,02,39,15.30
2021,07,04,02,40,15.30
2021,07,04,02,41,15.20
2021,07,04,02,42,15.20
2021,07,04,02,43,15.20
2021,07,04,02,44,15.20
2021,07,04,02,45,15.10
2021,07,04,02,46,15.10
2021,07,04,02,47,15.10
2021,07,04,02,48,15.00
2021,07,04,02,49,15.00
2021,07,04,02,50,14.90
2021,07,04,02,51,14.90
2021,07,04,02,52,14.90
2021,07,04,02,53,14.90
2021,07,04,02,54,14.80
2021,07,04,02,55,14.80
2021,07,04,02,56,14.80
2021,07,04,02,57,14.80
2021,07,04,02,58,14.80
2021,07,04,02,59,14.70
2021,07,04,03,00,14.70
2021,07,04,03,01,14.70
2021,07,04,03,02,14.70
2021,07,04,03,03,14.70
2021,07,04,03,04,14.70
2021,07,04,03,05,14.70
2021,07,04,03,06,14.60
2021,07,04,03,07,14.60
2021,07,04,03,08,14.60
2021,07,04,03,09,14.60
2021,07,04,03,10,14.60
2021,07,04,03,11,14.60
2021,07,04,03,12,14.60
2021,07,04,03,13,14.60
2021,07,04,03,14,14.60
2021,07,04,03,15,14.60
2021,07,04,03,16,14.60
2021,07,04,03,17,14.60
2021,07,04,03,18,14.60
2021,07,04,03,19,14.60
2021,07,04,03,20,14.60
2021,07,04,03,21,14.60
2021,07,04,03,22,14.60
2021,07,04,03,23,14.70
2021,07,04,03,24,14.70
2021,07,04,03,25,14.70
2021,07,04,03,26,14.70
2021,07,04,03,27,14.70
2021,07,04,03,28,14.80
2021,07,04,03,29,14.80
2021,07,04,03,30,14.80
2021,07,04,03,31,14.80
2021,07,04,03,32,14.80
2021,07,04,03,33,14.80
2021,07,04,03,34,14.80
2021,07,04,03,35,14.80
2021,07,04,03,36,14.80
2021,07,04,03,37,14.80
2021,07,04,03,38,14.80
2021,07,04,03,39,14.80
2021,07,04,03,40,14.80
2021,07,04,03,41,14.70
2021,07,04,03,42,14.70
2021,07,04,03,43,14.70
2021,07,04,03,44,14.70
2021,07,04,03,45,14.70
2021,07,04,03,46,14.70
2021,07,04,03,47,14.70
2021,07,04,03,48,14.60
2021,07,04,03,49,14.60
2021,07,04,03,50,14.60
2021,07,04,03,51,14.60
2021,07,04,03,52,14.60
2021,07,04,03,53,14.50
2021,07,04,03,54,14.50
2021,07,04,03,55,14.50
2021,07,04,03,56,14.50
2021,07,04,03,57,14.50
2021,07,04,03,58,14.50
2021,07,04,03,59,14.50
2021,07,04,04,00,14.40
2021,07,04,04,01,14.40
2021,07,04,04,02,14.40
2021,07,04,04,03,14.50
2021,07,04,04,04,14.40
2021,07,04,04,05,14.50
2021,07,04,04,06,14.50
2021,07,04,04,07,14.40
2021,07,04,04,08,14.40
2021,07,04,04,09,14.40
2021,07,04,04,10,14.40
2021,07,04,04,11,14.50
2021,07,04,04,12,14.40
2021,07,04,04,13,14.40
2021,07,04,04,14,14.40
2021,07,04,04,15,14.40
2021,07,04,04,16,14.40
2021,07,04,04,17,14.40
2021,07,04,04,18,14.40
2021,07,04,04,19,14.40
2021,07,04,04,20,14.40
2021,07,04,04,21,14.40
2021,07,04,04,22,14.40
2021,07,04,04,23,14.40
2021,07,04,04,24,14.40
2021,07,04,04,25,14.50
2021,07,04,04,26,14.40
2021,07,04,04,27,14.50
2021,07,04,04,28,14.40
2021,07,04,04,29,14.40
2021,07,04,04,30,14.40
2021,07,04,04,31,14.40
2021,07,04,04,32,14.40
2021,07,04,04,33,14.40
2021,07,04,04,34,14.40
2021,07,04,04,35,14.30
2021,07,04,04,36,14.30
2021,07,04,04,37,14.30
2021,07,04,04,38,14.30
2021,07,04,04,39,14.30
2021,07,04,04,40,14.20
2021,07,04,04,41,14.20
2021,07,04,04,42,14.20
2021,07,04,04,43,14.20
2021,07,04,04,44,14.10
2021,07,04,04,45,14.10
2021,07,04,04,46,14.10
2021,07,04,04,47,14.10
2021,07,04,04,48,14.10
2021,07,04,04,49,14.10
2021,07,04,04,50,14.10
2021,07,04,04,51,14.00
2021,07,04,04,52,14.00
2021,07,04,04,53,14.00
2021,07,04,04,54,14.00
2021,07,04,04,55,14.00
2021,07,04,04,56,14.00
2021,07,04,04,57,14.00
2021,07,04,04,58,13.90
2021,07,04,04,59,13.90
2021,07,04,05,00,13.90
2021,07,04,05,01,13.90
2021,07,04,05,02,13.90
2021,07,04,05,03,13.90
2021,07,04,05,04,13.90
2021,07,04,05,05,13.90
2021,07,04,05,06,13.90
2021,07,04,05,07,13.90
2021,07,04,05,08,13.90
2021,07,04,05,09,13.90
2021,07,04,05,10,14.00
2021,07,04,05,11,14.00
2021,07,04,05,12,14.00
2021,07,04,05,13,14.00
2021,07,04,05,14,14.00
2021,07,04,05,15,14.00
2021,07,04,05,16,14.00
2021,07,04,05,17,14.00
2021,07,04,05,18,14.00
2021,07,04,05,19,14.00
2021,07,04,05,20,13.90
2021,07,04,05,21,13.90
2021,07,04,05,22,13.90
2021,07,04,05,23,13.90
2021,07,04,05,24,13.90
2021,07,04,05,25,13.90
2021,07,04,05,26,13.90
2021,07,04,05,27,13.90
2021,07,04,05,28,13.90
2021,07,04,05,29,13.90
2021,07,04,05,30,13.90
2021,07,04,05,31,13.90
2021,07,04,05,32,13.90
2021,07,04,05,33,13.90
2021,07,04,05,34,13.90
2021,07,04,05,35,13.80
2021,07,04,05,36,13.80
2021,07,04,05,37,13.80
2021,07,04,05,38,13.80
2021,07,04,05,39,13.80
2021,07,04,05,40,13.80
2021,07,04,05,41,13.80
2021,07,04,05,42,13.70
2021,07,04,05,43,13.70
2021,07,04,05,44,13.70
2021,07,04,05,45,13.70
2021,07,04,05,46,13.70
2021,07,04,05,47,13.70
2021,07,04,05,48,13.60
2021,07,04,05,49,13.60
2021,07,04,05,50,13.60
2021,07,04,05,51,13.60
2021,07,04,05,52,13.60
2021,07,04,05,53,13.60
2021,07,04,05,54,13.60
2021,07,04,05,55,13.60
2021,07,04,05,56,13.60
2021,07,04,05,57,13.60
2021,07,04,05,58,13.60
2021,07,04,05,59,13.60
2021,07,04,06,00,13.60
2021,07,04,06,01,13.60
2021,07,04,06,02,13.60
2021,07,04,06,03,13.60
2021,07,04,06,04,13.60
2021,07,04,06,05,13.60
2021,07,04,06,06,13.60
2021,07,04,06,07,13.70
2021,07,04,06,08,13.70
2021,07,04,06,09,13.70
2021,07,04,06,10,13.70
2021,07,04,06,11,13.70
2021,07,04,06,12,13.70
2021,07,04,06,13,13.70
2021,07,04,06,14,13.80
2021,07,04,06,15,13.80
2021,07,04,06,16,13.80
2021,07,04,06,17,13.80
2021,07,04,06,18,13.80
2021,07,04,06,19,13.90
2021,07,04,06,20,13.90
2021,07,04,06,21,13.90
2021,07,04,06,22,13.90
2021,07,04,06,23,13.90
2021,07,04,06,24,13.90
2021,07,04,06,25,14.00
2021,07,04,06,26,14.00
2021,07,04,06,27,14.00
2021,07,04,06,28,14.10
2021,07,04,06,29,14.10
2021,07,04,06,30,14.10
2021,07,04,06,31,14.10
2021,07,04,06,32,14.10
2021,07,04,06,33,14.10
2021,07,04,06,34,14.10
2021,07,04,06,35,14.10
2021,07,04,06,36,14.10
2021,07,04,06,37,14.20
2021,07,04,06,38,14.20
2021,07,04,06,39,14.20
2021,07,04,06,40,14.20
2021,07,04,06,41,14.20
2021,07,04,06,42,14.30
2021,07,04,06,43,14.30
2021,07,04,06,44,14.30
2021,07,04,06,45,14.30
2021,07,04,06,46,14.40
2021,07,04,06,47,14.40
2021,07,04,06,48,14.40
2021,07,04,06,49,14.40
2021,07,04,06,50,14.50
2021,07,04,06,51,14.50
2021,07,04,06,52,14.60
2021,07,04,06,53,14.60
2021,07,04,06,54,14.60
2021,07,04,06,55,14.60
2021,07,04,06,56,14.70
2021,07,04,06,57,14.70
2021,07,04,06,58,14.80
2021,07,04,06,59,14.80
2021,07,04,07,00,14.80
2021,07,04,07,01,14.90
2021,07,04,07,02,14.90
2021,07,04,07,03,14.90
2021,07,04,07,04,15.00
2021,07,04,07,05,15.00
2021,07,04,07,06,15.10
2021,07,04,07,07,15.10
2021,07,04,07,08,15.20
2021,07,04,07,09,15.20
2021,07,04,07,10,15.20
2021,07,04,07,11,15.30
2021,07,04,07,12,15.30
2021,07,04,07,13,15.30
2021,07,04,07,14,15.40
2021,07,04,07,15,15.40
2021,07,04,07,16,15.40
2021,07,04,07,17,15.50
2021,07,04,07,18,15.50
2021,07,04,07,19,15.50
2021,07,04,07,20,15.60
2021,07,04,07,21,15.60
2021,07,04,07,22,15.60
2021,07,04,07,23,15.70
2021,07,04,07,24,15.70
2021,07,04,07,25,15.80
2021,07,04,07,26,15.80
2021,07,04,07,27,15.80
2021,07,04,07,28,15.80
2021,07,04,07,29,15.90
2021,07,04,07,30,15.90
2021,07,04,07,31,15.90
2021,07,04,07,32,16.00
2021,07,04,07,33,16.00
2021,07,04,07,34,16.00
2021,07,04,07,35,16.00
2021,07,04,07,36,16.10
2021,07,04,07,37,16.10
2021,07,04,07,38,16.10
2021,07,04,07,39,16.20
2021,07,04,07,40,16.20
2021,07,04,07,41,16.30
2021,07,04,07,42,16.30
2021,07,04,07,43,16.30
2021,07,04,07,44,16.40
2021,07,04,07,45,16.50
2021,07,04,07,46,16.60
2021,07,04,07,47,16.60
2021,07,04,07,48,16.60
2021,07,04,07,49,16.60
2021,07,04,07,50,16.60
2021,07,04,07,51,16.60
2021,07,04,07,52,16.60
2021,07,04,07,53,16.60
2021,07,04,07,54,16.70
2021,07,04,07,55,16.70
2021,07,04,07,56,16.80
2021,07,04,07,57,16.80
2021,07,04,07,58,16.80
2021,07,04,07,59,16.90
2021,07,04,08,00,16.90
2021,07,04,08,01,17.00
2021,07,04,08,02,17.00
2021,07,04,08,03,17.10
2021,07,04,08,04,17.10
2021,07,04,08,05,17.10
2021,07,04,08,06,17.20
2021,07,04,08,07,17.20
2021,07,04,08,08,17.20
2021,07,04,08,09,17.20
2021,07,04,08,10,17.20
2021,07,04,08,11,17.20
2021,07,04,08,12,17.30
2021,07,04,08,13,17.20
2021,07,04,08,14,17.20
2021,07,04,08,15,17.20
2021,07,04,08,16,17.20
2021,07,04,08,17,17.20
2021,07,04,08,18,17.20
2021,07,04,08,19,17.20
2021,07,04,08,20,17.20
2021,07,04,08,21,17.30
2021,07,04,08,22,17.30
2021,07,04,08,23,17.30
2021,07,04,08,24,17.40
2021,07,04,08,25,17.40
2021,07,04,08,26,17.50
2021,07,04,08,27,17.60
2021,07,04,08,28,17.60
2021,07,04,08,29,17.60
2021,07,04,08,30,17.70
2021,07,04,08,31,17.70
2021,07,04,08,32,17.70
2021,07,04,08,33,17.70
2021,07,04,08,34,17.70
2021,07,04,08,35,17.70
2021,07,04,08,36,17.70
2021,07,04,08,37,17.70
2021,07,04,08,38,17.80
2021,07,04,08,39,17.90
2021,07,04,08,40,17.90
2021,07,04,08,41,18.00
2021,07,04,08,42,18.10
2021,07,04,08,43,18.10
2021,07,04,08,44,18.20
2021,07,04,08,45,18.20
2021,07,04,08,46,18.30
2021,07,04,08,47,18.30
2021,07,04,08,48,18.30
2021,07,04,08,49,18.30
2021,07,04,08,50,18.30
2021,07,04,08,51,18.30
2021,07,04,08,52,18.20
2021,07,04,08,53,18.10
2021,07,04,08,54,18.10
2021,07,04,08,55,18.00
2021,07,04,08,56,17.90
2021,07,04,08,57,17.80
2021,07,04,08,58,17.80
2021,07,04,08,59,17.80
2021,07,04,09,00,17.90
2021,07,04,09,01,17.90
2021,07,04,09,02,18.00
2021,07,04,09,03,18.00
2021,07,04,09,04,18.10
2021,07,04,09,05,18.10
2021,07,04,09,06,18.00
2021,07,04,09,07,18.00
2021,07,04,09,08,17.90
2021,07,04,09,09,17.90
2021,07,04,09,10,17.90
2021,07,04,09,11,17.90
2021,07,04,09,12,17.90
2021,07,04,09,13,17.90
2021,07,04,09,14,18.00
2021,07,04,09,15,18.00
2021,07,04,09,16,18.10
2021,07,04,09,17,18.10
2021,07,04,09,18,18.10
2021,07,04,09,19,18.20
2021,07,04,09,20,18.30
2021,07,04,09,21,18.20
2021,07,04,09,22,18.20
2021,07,04,09,23,18.20
2021,07,04,09,24,18.20
2021,07,04,09,25,18.20
2021,07,04,09,26,18.20
2021,07,04,09,27,18.20
2021,07,04,09,28,18.30
2021,07,04,09,29,18.30
2021,07,04,09,30,18.30
2021,07,04,09,31,18.20
2021,07,04,09,32,18.20
2021,07,04,09,33,18.30
2021,07,04,09,34,18.30
2021,07,04,09,35,18.30
2021,07,04,09,36,18.20
2021,07,04,09,37,18.10
2021,07,04,09,38,18.10
2021,07,04,09,39,18.10
2021,07,04,09,40,18.10
2021,07,04,09,41,18.20
2021,07,04,09,42,18.20
2021,07,04,09,43,18.20
2021,07,04,09,44,18.20
2021,07,04,09,45,18.20
2021,07,04,09,46,18.20
2021,07,04,09,47,18.30
2021,07,04,09,48,18.30
2021,07,04,09,49,18.30
2021,07,04,09,50,18.30
2021,07,04,09,51,18.30
2021,07,04,09,52,18.30
2021,07,04,09,53,18.30
2021,07,04,09,54,18.30
2021,07,04,09,55,18.40
2021,07,04,09,56,18.40
2021,07,04,09,57,18.30
2021,07,04,09,58,18.30
2021,07,04,09,59,18.30
2021,07,04,10,00,18.20
2021,07,04,10,01,18.20
2021,07,04,10,02,18.20
2021,07,04,10,03,18.20
2021,07,04,10,04,18.20
2021,07,04,10,05,18.20
2021,07,04,10,06,18.20
2021,07,04,10,07,18.20
2021,07,04,10,08,18.10
2021,07,04,10,09,18.10
2021,07,04,10,10,18.10
2021,07,04,10,11,18.10
2021,07,04,10,12,18.10
2021,07,04,10,13,18.00
2021,07,04,10,14,18.00
2021,07,04,10,15,18.00
2021,07,04,10,16,18.10
2021,07,04,10,17,18.10
2021,07,04,10,18,18.10
2021,07,04,10,19,18.10
2021,07,04,10,20,18.10
2021,07,04,10,21,18.10
2021,07,04,10,22,18.20
2021,07,04,10,23,18.20
2021,07,04,10,24,18.20
2021,07,04,10,25,18.30
2021,07,04,10,26,18.30
2021,07,04,10,27,18.30
2021,07,04,10,28,18.30
2021,07,04,10,29,18.30
2021,07,04,10,30,18.30
2021,07,04,10,31,18.30
2021,07,04,10,32,18.30
2021,07,04,10,33,18.30
2021,07,04,10,34,18.30
2021,07,04,10,35,18.30
2021,07,04,10,36,18.30
2021,07,04,10,37,18.30
2021,07,04,10,38,18.30
2021,07,04,10,39,18.40
2021,07,04,10,40,18.40
2021,07,04,10,41,18.40
2021,07,04,10,42,18.40
2021,07,04,10,43,18.40
2021,07,04,10,44,18.50
2021,07,04,10,45,18.60
2021,07,04,10,46,18.60
2021,07,04,10,47,18.70
2021,07,04,10,48,18.70
2021,07,04,10,49,18.70
2021,07,04,10,50,18.70
2021,07,04,10,51,18.80
2021,07,04,10,52,18.80
2021,07,04,10,53,18.80
2021,07,04,10,54,18.70
2021,07,04,10,55,18.70
2021,07,04,10,56,18.70
2021,07,04,10,57,18.70
2021,07,04,10,58,18.70
2021,07,04,10,59,18.70
2021,07,04,11,00,18.70
2021,07,04,11,01,18.70
2021,07,04,11,02,18.80
2021,07,04,11,03,18.80
2021,07,04,11,04,18.90
2021,07,04,11,05,19.00
2021,07,04,11,06,19.00
2021,07,04,11,07,19.00
2021,07,04,11,08,19.00
2021,07,04,11,09,19.10
2021,07,04,11,10,19.10
2021,07,04,11,11,19.10
2021,07,04,11,12,19.10
2021,07,04,11,13,19.20
2021,07,04,11,14,19.20
2021,07,04,11,15,19.20
2021,07,04,11,16,19.30
2021,07,04,11,17,19.30
2021,07,04,11,18,19.30
2021,07,04,11,19,19.40
2021,07,04,11,20,19.40
2021,07,04,11,21,19.40
2021,07,04,11,22,19.30
2021,07,04,11,23,19.20
2021,07,04,11,24,19.20
2021,07,04,11,25,19.10
2021,07,04,11,26,19.10
2021,07,04,11,27,19.10
2021,07,04,11,28,19.00
2021,07,04,11,29,19.00
2021,07,04,11,30,19.10
2021,07,04,11,31,19.10
2021,07,04,11,32,19.20
2021,07,04,11,33,19.20
2021,07,04,11,34,19.10
2021,07,04,11,35,19.10
2021,07,04,11,36,19.10
2021,07,04,11,37,19.10
2021,07,04,11,38,19.10
2021,07,04,11,39,19.20
2021,07,04,11,40,19.20
2021,07,04,11,41,19.30
2021,07,04,11,42,19.40
2021,07,04,11,43,19.50
2021,07,04,11,44,19.50
2021,07,04,11,45,19.60
2021,07,04,11,46,19.60
2021,07,04,11,47,19.60
2021,07,04,11,48,19.50
2021,07,04,11,49,19.50
2021,07,04,11,50,19.50
2021,07,04,11,51,19.40
2021,07,04,11,52,19.40
2021,07,04,11,53,19.40
2021,07,04,11,54,19.50
2021,07,04,11,55,19.50
2021,07,04,11,56,19.50
2021,07,04,11,57,19.50
2021,07,04,11,58,19.50
2021,07,04,11,59,19.50
2021,07,04,12,00,19.50
2021,07,04,12,01,19.60
2021,07,04,12,02,19.60
2021,07,04,12,03,19.60
2021,07,04,12,04,19.60
2021,07,04,12,05,19.60
2021,07,04,12,06,19.70
2021,07,04,12,07,19.70
2021,07,04,12,08,19.80
2021,07,04,12,09,19.80
2021,07,04,12,10,19.80
2021,07,04,12,11,19.80
2021,07,04,12,12,19.80
2021,07,04,12,13,19.90
2021,07,04,12,14,19.90
2021,07,04,12,15,20.00
2021,07,04,12,16,20.00
2021,07,04,12,17,20.10
2021,07,04,12,18,20.10
2021,07,04,12,19,20.10
2021,07,04,12,20,20.10
2021,07,04,12,21,20.20
2021,07,04,12,22,20.30
2021,07,04,12,23,20.30
2021,07,04,12,24,20.40
2021,07,04,12,25,20.40
2021,07,04,12,26,20.40
2021,07,04,12,27,20.40
2021,07,04,12,28,20.30
2021,07,04,12,29,20.20
2021,07,04,12,30,20.10
2021,07,04,12,31,20.00
2021,07,04,12,32,20.00
2021,07,04,12,33,20.00
2021,07,04,12,34,20.00
2021,07,04,12,35,20.00
2021,07,04,12,36,20.10
2021,07,04,12,37,20.10
2021,07,04,12,38,20.10
2021,07,04,12,39,20.20
2021,07,04,12,40,20.30
2021,07,04,12,41,20.40
2021,07,04,12,42,20.40
2021,07,04,12,43,20.40
2021,07,04,12,44,20.50
2021,07,04,12,45,20.50
2021,07,04,12,46,20.50
2021,07,04,12,47,20.50
2021,07,04,12,48,20.50
2021,07,04,12,49,20.50
2021,07,04,12,50,20.60
2021,07,04,12,51,20.70
2021,07,04,12,52,20.70
2021,07,04,12,53,20.70
2021,07,04,12,54,20.70
2021,07,04,12,55,20.60
2021,07,04,12,56,20.60
2021,07,04,12,57,20.60
2021,07,04,12,58,20.60
2021,07,04,12,59,20.60
2021,07,04,13,00,20.70
2021,07,04,13,01,20.80
2021,07,04,13,02,20.90
2021,07,04,13,03,21.00
2021,07,04,13,04,21.00
2021,07,04,13,05,21.10
2021,07,04,13,06,21.20
2021,07,04,13,07,21.30
2021,07,04,13,08,21.40
2021,07,04,13,09,21.50
2021,07,04,13,10,21.60
2021,07,04,13,11,21.60
2021,07,04,13,12,21.70
2021,07,04,13,13,21.60
2021,07,04,13,14,21.50
2021,07,04,13,15,21.40
2021,07,04,13,16,21.30
2021,07,04,13,17,21.20
2021,07,04,13,18,21.20
2021,07,04,13,19,21.10
2021,07,04,13,20,21.00
2021,07,04,13,21,21.00
2021,07,04,13,22,21.00
2021,07,04,13,23,21.10
2021,07,04,13,24,21.10
2021,07,04,13,25,21.10
2021,07,04,13,26,21.10
2021,07,04,13,27,21.10
2021,07,04,13,28,21.10
2021,07,04,13,29,21.10
2021,07,04,13,30,21.20
2021,07,04,13,31,21.30
2021,07,04,13,32,21.30
2021,07,04,13,33,21.30
2021,07,04,13,34,21.40
2021,07,04,13,35,21.40
2021,07,04,13,36,21.40
2021,07,04,13,37,21.40
2021,07,04,13,38,21.50
2021,07,04,13,39,21.60
2021,07,04,13,40,21.70
2021,07,04,13,41,21.70
2021,07,04,13,42,21.70
2021,07,04,13,43,21.80
2021,07,04,13,44,21.80
2021,07,04,13,45,21.80
2021,07,04,13,46,21.80
2021,07,04,13,47,21.90
2021,07,04,13,48,22.00
2021,07,04,13,49,22.10
2021,07,04,13,50,22.10
2021,07,04,13,51,22.20
2021,07,04,13,52,22.20
2021,07,04,13,53,22.20
2021,07,04,13,54,22.20
2021,07,04,13,55,22.20
2021,07,04,13,56,22.20
2021,07,04,13,57,22.30
2021,07,04,13,58,22.30
2021,07,04,13,59,22.30
2021,07,04,14,00,22.30
2021,07,04,14,01,22.30
2021,07,04,14,02,22.30
2021,07,04,14,03,22.30
2021,07,04,14,04,22.30
2021,07,04,14,05,22.30
2021,07,04,14,06,22.30
2021,07,04,14,07,22.40
2021,07,04,14,08,22.50
2021,07,04,14,09,22.70
2021,07,04,14,10,22.80
2021,07,04,14,11,22.90
2021,07,04,14,12,23.00
2021,07,04,14,13,23.00
2021,07,04,14,14,23.00
2021,07,04,14,15,23.10
2021,07,04,14,16,23.10
2021,07,04,14,17,23.20
2021,07,04,14,18,23.30
2021,07,04,14,19,23.30
2021,07,04,14,20,23.40
2021,07,04,14,21,23.40
2021,07,04,14,22,23.40
2021,07,04,14,23,23.40
2021,07,04,14,24,23.40
2021,07,04,14,25,23.40
2021,07,04,14,26,23.40
2021,07,04,14,27,23.50
2021,07,04,14,28,23.60
2021,07,04,14,29,23.60
2021,07,04,14,30,23.70
2021,07,04,14,31,23.70
2021,07,04,14,32,23.70
2021,07,04,14,33,23.80
2021,07,04,14,34,23.90
2021,07,04,14,35,24.00
2021,07,04,14,36,24.00
2021,07,04,14,37,24.10
2021,07,04,14,38,24.10
2021,07,04,14,39,24.00
2021,07,04,14,40,23.90
2021,07,04,14,41,23.90
2021,07,04,14,42,23.80
2021,07,04,14,43,23.70
2021,07,04,14,44,23.60
2021,07,04,14,45,23.50
2021,07,04,14,46,23.50
2021,07,04,14,47,23.60
2021,07,04,14,48,23.50
2021,07,04,14,49,23.50
2021,07,04,14,50,23.40
2021,07,04,14,51,23.40
2021,07,04,14,52,23.40
2021,07,04,14,53,23.30
2021,07,04,14,54,23.30
2021,07,04,14,55,23.20
2021,07,04,14,56,23.10
2021,07,04,14,57,23.10
2021,07,04,14,58,23.00
2021,07,04,14,59,23.00
2021,07,04,15,00,23.00
2021,07,04,15,01,22.90
2021,07,04,15,02,22.90
2021,07,04,15,03,22.90
2021,07,04,15,04,22.90
2021,07,04,15,05,22.90
2021,07,04,15,06,23.00
2021,07,04,15,07,23.00
2021,07,04,15,08,23.10
2021,07,04,15,09,23.10
2021,07,04,15,10,23.20
2021,07,04,15,11,23.30
2021,07,04,15,12,23.30
2021,07,04,15,13,23.40
2021,07,04,15,14,23.40
2021,07,04,15,15,23.40
2021,07,04,15,16,23.50
2021,07,04,15,17,23.50
2021,07,04,15,18,23.50
2021,07,04,15,19,23.60
2021,07,04,15,20,23.60
2021,07,04,15,21,23.60
2021,07,04,15,22,23.60
2021,07,04,15,23,23.60
2021,07,04,15,24,23.70
2021,07,04,15,25,23.70
2021,07,04,15,26,23.80
2021,07,04,15,27,23.80
2021,07,04,15,28,23.80
2021,07,04,15,29,23.80
2021,07,04,15,30,23.80
2021,07,04,15,31,23.90
2021,07,04,15,32,23.90
2021,07,04,15,33,23.90
2021,07,04,15,34,24.00
2021,07,04,15,35,24.10
2021,07,04,15,36,24.20
2021,07,04,15,37,24.30
2021,07,04,15,38,24.30
2021,07,04,15,39,24.30
2021,07,04,15,40,24.30
2021,07,04,15,41,24.30
2021,07,04,15,42,24.30
2021,07,04,15,43,24.30
2021,07,04,15,44,24.30
2021,07,04,15,45,24.40
2021,07,04,15,46,24.40
2021,07,04,15,47,24.40
2021,07,04,15,48,24.40
2021,07,04,15,49,24.40
2021,07,04,15,50,24.30
2021,07,04,15,51,24.30
2021,07,04,15,52,24.20
2021,07,04,15,53,24.10
2021,07,04,15,54,24.10
2021,07,04,15,55,24.00
2021,07,04,15,56,24.00
2021,07,04,15,57,24.00
2021,07,04,15,58,24.00
2021,07,04,15,59,24.10
2021,07,04,16,00,24.10
2021,07,04,16,01,24.10
2021,07,04,16,02,24.10
2021,07,04,16,03,24.20
2021,07,04,16,04,24.10
2021,07,04,16,05,24.10
2021,07,04,16,06,24.10
2021,07,04,16,07,24.20
2021,07,04,16,08,24.20
2021,07,04,16,09,24.20
2021,07,04,16,10,24.20
2021,07,04,16,11,24.10
2021,07,04,16,12,24.10
2021,07,04,16,13,24.20
2021,07,04,16,14,24.20
2021,07,04,16,15,24.20
2021,07,04,16,16,24.10
2021,07,04,16,17,24.10
2021,07,04,16,18,24.10
2021,07,04,16,19,24.10
2021,07,04,16,20,24.10
2021,07,04,16,21,24.10
2021,07,04,16,22,24.20
2021,07,04,16,23,24.30
2021,07,04,16,24,24.30
2021,07,04,16,25,24.30
2021,07,04,16,26,24.30
2021,07,04,16,27,24.30
2021,07,04,16,28,24.30
2021,07,04,16,29,24.30
2021,07,04,16,30,24.20
2021,07,04,16,31,24.10
2021,07,04,16,32,24.10
2021,07,04,16,33,24.00
2021,07,04,16,34,24.00
2021,07,04,16,35,24.00
2021,07,04,16,36,24.00
2021,07,04,16,37,24.00
2021,07,04,16,38,24.00
2021,07,04,16,39,24.00
2021,07,04,16,40,24.00
2021,07,04,16,41,24.00
2021,07,04,16,42,24.00
2021,07,04,16,43,24.00
2021,07,04,16,44,24.10
2021,07,04,16,45,24.00
2021,07,04,16,46,24.00
2021,07,04,16,47,24.00
2021,07,04,16,48,24.00
2021,07,04,16,49,24.00
2021,07,04,16,50,24.00
2021,07,04,16,51,24.10
2021,07,04,16,52,24.10
2021,07,04,16,53,24.00
2021,07,04,16,54,24.00
2021,07,04,16,55,24.00
2021,07,04,16,56,23.90
2021,07,04,16,57,23.90
2021,07,04,16,58,23.90
2021,07,04,16,59,23.90
2021,07,04,17,00,23.90
2021,07,04,17,01,23.90
2021,07,04,17,02,24.00
2021,07,04,17,03,24.10
2021,07,04,17,04,24.10
2021,07,04,17,05,24.10
2021,07,04,17,06,24.10
2021,07,04,17,07,24.10
2021,07,04,17,08,24.10
2021,07,04,17,09,24.20
2021,07,04,17,10,24.20
2021,07,04,17,11,24.30
2021,07,04,17,12,24.30
2021,07,04,17,13,24.40
2021,07,04,17,14,24.50
2021,07,04,17,15,24.60
2021,07,04,17,16,24.70
2021,07,04,17,17,24.80
2021,07,04,17,18,24.80
2021,07,04,17,19,24.80